Time,TemperatureF,DewpointF,PressureIn,WindDirection,WindDirectionDegrees,WindSpeedMPH,WindSpeedGustMPH,Humidity,HourlyPrecipIn,Conditions,Clouds,dailyrainin,SoftwareType,DateUTC
2013-01-20 00:04:00,41.0,32.0,-100.00,West,260,14.0,24.0,70,-99.99,,,-99.99,,2013-01-20 05:04:00,
2013-01-20 00:12:00,42.0,32.0,-100.00,WSW,255,15.0,30.0,68,-99.99,,,-99.99,,2013-01-20 05:12:00,
2013-01-20 00:22:00,42.0,32.0,-100.00,West,260,14.0,32.0,68,-99.99,,,-99.99,,2013-01-20 05:22:00,
2013-01-20 00:33:00,42.0,32.0,-100.00,West,260,14.0,32.0,68,-99.99,,,-99.99,,2013-01-20 05:33:00,
2013-01-20 00:42:00,41.0,32.0,-100.00,West,265,20.0,32.0,68,-99.99,,,-99.99,,2013-01-20 05:42:00,
2013-01-20 00:53:00,41.0,31.0,-100.00,WNW,285,17.0,31.0,67,-99.99,,,-99.99,,2013-01-20 05:53:00,
2013-01-20 01:02:00,40.0,30.0,-100.00,West,265,16.0,30.0,67,-99.99,,,-99.99,,2013-01-20 06:02:00,
2013-01-20 01:12:00,41.0,30.0,-100.00,West,265,20.0,29.0,66,-99.99,,,-99.99,,2013-01-20 06:12:00,
2013-01-20 01:22:00,41.0,30.0,-100.00,West,265,20.0,29.0,66,-99.99,,,-99.99,,2013-01-20 06:22:00,
2013-01-20 01:33:00,40.0,27.0,-100.00,West,260,24.0,35.0,58,-99.99,,,-99.99,,2013-01-20 06:33:00,
2013-01-20 01:42:00,40.0,27.0,-100.00,West,260,24.0,35.0,58,-99.99,,,-99.99,,2013-01-20 06:42:00,
2013-01-20 01:52:00,39.0,22.0,-100.00,West,270,22.0,41.0,50,-99.99,,,-99.99,,2013-01-20 06:52:00,
2013-01-20 02:02:00,39.0,22.0,-100.00,West,270,22.0,41.0,50,-99.99,,,-99.99,,2013-01-20 07:02:00,
2013-01-20 02:12:00,39.0,22.0,-100.00,West,270,22.0,41.0,50,-99.99,,,-99.99,,2013-01-20 07:12:00,
2013-01-20 02:22:00,38.0,20.0,-100.00,West,280,24.0,38.0,49,-99.99,,,-99.99,,2013-01-20 07:22:00,
2013-01-20 02:32:00,37.0,20.0,-100.00,WNW,295,22.0,40.0,49,-99.99,,,-99.99,,2013-01-20 07:32:00,
2013-01-20 02:42:00,37.0,20.0,-100.00,WNW,285,24.0,38.0,49,-99.99,,,-99.99,,2013-01-20 07:42:00,
2013-01-20 02:52:00,34.0,17.0,-100.00,WNW,285,25.0,45.0,49,-99.99,,,-99.99,,2013-01-20 07:52:00,
2013-01-20 03:02:00,33.0,17.0,-100.00,WNW,295,21.0,40.0,51,-99.99,,,-99.99,,2013-01-20 08:02:00,
2013-01-20 03:12:00,31.0,17.0,-100.00,WNW,295,24.0,37.0,53,-99.99,,,-99.99,,2013-01-20 08:12:00,
2013-01-20 03:22:00,31.0,15.0,-100.00,WNW,285,30.0,37.0,52,-99.99,,,-99.99,,2013-01-20 08:22:00,
2013-01-20 03:32:00,30.0,15.0,-100.00,West,280,23.0,37.0,52,-99.99,,,-99.99,,2013-01-20 08:32:00,
2013-01-20 03:42:00,30.0,15.0,-100.00,WNW,290,29.0,40.0,53,-99.99,,,-99.99,,2013-01-20 08:42:00,
2013-01-20 03:52:00,28.0,14.0,-100.00,NW,305,25.0,35.0,54,-99.99,,,-99.99,,2013-01-20 08:52:00,
2013-01-20 04:02:00,27.0,13.0,-100.00,NW,305,27.0,37.0,55,-99.99,,,-99.99,,2013-01-20 09:02:00,
2013-01-20 04:12:00,27.0,13.0,-100.00,NW,305,29.0,35.0,55,-99.99,,,-99.99,,2013-01-20 09:12:00,
2013-01-20 04:22:00,27.0,14.0,-100.00,NW,305,20.0,30.0,56,-99.99,,,-99.99,,2013-01-20 09:22:00,
2013-01-20 04:33:00,27.0,14.0,-100.00,NW,305,19.0,34.0,57,-99.99,,,-99.99,,2013-01-20 09:33:00,
2013-01-20 04:42:00,26.0,15.0,-100.00,WNW,300,19.0,30.0,60,-99.99,,,-99.99,,2013-01-20 09:42:00,
2013-01-20 04:52:00,26.0,15.0,-100.00,WNW,295,24.0,34.0,62,-99.99,,,-99.99,,2013-01-20 09:52:00,
2013-01-20 05:02:00,24.0,15.0,-100.00,WNW,300,24.0,35.0,65,-99.99,,,-99.99,,2013-01-20 10:02:00,
2013-01-20 05:12:00,24.0,14.0,-100.00,WNW,295,24.0,34.0,65,-99.99,,,-99.99,,2013-01-20 10:12:00,
2013-01-20 05:22:00,24.0,14.0,-100.00,WNW,290,23.0,35.0,64,-99.99,,,-99.99,,2013-01-20 10:22:00,
2013-01-20 05:32:00,24.0,12.0,-100.00,NW,305,23.0,39.0,60,-99.99,,,-99.99,,2013-01-20 10:32:00,
2013-01-20 05:42:00,23.0,13.0,-100.00,WNW,300,21.0,34.0,63,-99.99,,,-99.99,,2013-01-20 10:42:00,
2013-01-20 05:52:00,23.0,12.0,-100.00,WNW,295,22.0,32.0,62,-99.99,,,-99.99,,2013-01-20 10:52:00,
2013-01-20 06:03:00,22.0,12.0,-100.00,NW,305,16.0,25.0,62,-99.99,,,-99.99,,2013-01-20 11:03:00,
2013-01-20 06:12:00,22.0,11.0,-100.00,WNW,295,21.0,29.0,64,-99.99,,,-99.99,,2013-01-20 11:12:00,
2013-01-20 06:22:00,21.0,12.0,-100.00,WNW,300,21.0,30.0,66,-99.99,,,-99.99,,2013-01-20 11:22:00,
2013-01-20 06:33:00,21.0,12.0,-100.00,WNW,300,20.0,27.0,67,-99.99,,,-99.99,,2013-01-20 11:33:00,
2013-01-20 06:43:00,21.0,12.0,-100.00,WNW,295,19.0,29.0,68,-99.99,,,-99.99,,2013-01-20 11:43:00,
2013-01-20 06:53:00,20.0,11.0,-100.00,WNW,295,19.0,32.0,65,-99.99,,,-99.99,,2013-01-20 11:53:00,
2013-01-20 07:03:00,20.0,11.0,-100.00,WNW,295,19.0,32.0,65,-99.99,,,-99.99,,2013-01-20 12:03:00,
2013-01-20 07:12:00,20.0,11.0,-100.00,WNW,295,24.0,34.0,66,-99.99,,,-99.99,,2013-01-20 12:12:00,
2013-01-20 07:23:00,20.0,10.0,-100.00,NW,305,21.0,38.0,65,-99.99,,,-99.99,,2013-01-20 12:23:00,
2013-01-20 07:33:00,19.0,11.0,-100.00,NW,310,16.0,30.0,72,-99.99,,,-99.99,,2013-01-20 12:33:00,
2013-01-20 07:43:00,18.0,12.0,-100.00,WNW,295,19.0,28.0,76,-99.99,,,-99.99,,2013-01-20 12:43:00,
2013-01-20 07:52:00,18.0,12.0,-100.00,NW,305,21.0,31.0,76,-99.99,,,-99.99,,2013-01-20 12:52:00,
2013-01-20 08:03:00,19.0,11.0,-100.00,NW,310,17.0,30.0,72,-99.99,,,-99.99,,2013-01-20 13:03:00,
2013-01-20 08:12:00,18.0,11.0,-100.00,WNW,295,17.0,32.0,73,-99.99,,,-99.99,,2013-01-20 13:12:00,
2013-01-20 08:23:00,18.0,11.0,-100.00,NW,305,15.0,28.0,72,-99.99,,,-99.99,,2013-01-20 13:23:00,
2013-01-20 08:33:00,18.0,10.0,-100.00,WNW,295,17.0,23.0,71,-99.99,,,-99.99,,2013-01-20 13:33:00,
2013-01-20 08:43:00,18.0,11.0,-100.00,NW,305,13.0,29.0,73,-99.99,,,-99.99,,2013-01-20 13:43:00,
2013-01-20 08:52:00,18.0,10.0,-100.00,WNW,290,17.0,26.0,72,-99.99,,,-99.99,,2013-01-20 13:52:00,
2013-01-20 09:02:00,18.0,11.0,-100.00,NW,315,15.0,30.0,74,-99.99,,,-99.99,,2013-01-20 14:02:00,
2013-01-20 09:12:00,17.0,11.0,-100.00,NW,305,18.0,27.0,74,-99.99,,,-99.99,,2013-01-20 14:12:00,
2013-01-20 09:23:00,18.0,11.0,-100.00,WNW,290,16.0,27.0,73,-99.99,,,-99.99,,2013-01-20 14:23:00,
2013-01-20 09:33:00,18.0,10.0,-100.00,NW,305,12.0,29.0,73,-99.99,,,-99.99,,2013-01-20 14:33:00,
2013-01-20 09:43:00,18.0,11.0,-100.00,NW,305,15.0,24.0,73,-99.99,,,-99.99,,2013-01-20 14:43:00,
2013-01-20 09:53:00,18.0,10.0,-100.00,WNW,300,19.0,27.0,70,-99.99,,,-99.99,,2013-01-20 14:53:00,
2013-01-20 10:03:00,18.0,9.0,-100.00,WNW,295,18.0,28.0,66,-99.99,,,-99.99,,2013-01-20 15:03:00,
2013-01-20 10:12:00,18.0,9.0,-100.00,NW,320,15.0,25.0,66,-99.99,,,-99.99,,2013-01-20 15:12:00,
2013-01-20 10:23:00,19.0,9.0,-100.00,WNW,290,14.0,19.0,66,-99.99,,,-99.99,,2013-01-20 15:23:00,
2013-01-20 10:33:00,18.0,9.0,-100.00,WNW,300,19.0,22.0,66,-99.99,,,-99.99,,2013-01-20 15:33:00,
2013-01-20 10:42:00,18.0,9.0,-100.00,WNW,290,17.0,23.0,66,-99.99,,,-99.99,,2013-01-20 15:42:00,
2013-01-20 10:53:00,19.0,9.0,-100.00,NW,305,16.0,25.0,65,-99.99,,,-99.99,,2013-01-20 15:53:00,
2013-01-20 11:03:00,19.0,9.0,-100.00,NW,315,17.0,28.0,64,-99.99,,,-99.99,,2013-01-20 16:03:00,
2013-01-20 11:12:00,19.0,9.0,-100.00,WNW,300,19.0,24.0,65,-99.99,,,-99.99,,2013-01-20 16:12:00,
2013-01-20 11:23:00,19.0,10.0,-100.00,WNW,295,14.0,24.0,65,-99.99,,,-99.99,,2013-01-20 16:23:00,
2013-01-20 11:33:00,19.0,10.0,-100.00,WNW,300,14.0,23.0,65,-99.99,,,-99.99,,2013-01-20 16:33:00,
2013-01-20 11:43:00,20.0,10.0,-100.00,WNW,285,19.0,25.0,64,-99.99,,,-99.99,,2013-01-20 16:43:00,
2013-01-20 11:52:00,20.0,9.0,-100.00,WNW,295,21.0,26.0,63,-99.99,,,-99.99,,2013-01-20 16:52:00,
2013-01-20 12:03:00,20.0,10.0,-100.00,WNW,300,16.0,27.0,63,-99.99,,,-99.99,,2013-01-20 17:03:00,
2013-01-20 12:13:00,20.0,10.0,-100.00,WNW,300,17.0,24.0,64,-99.99,,,-99.99,,2013-01-20 17:13:00,
2013-01-20 12:22:00,21.0,11.0,-100.00,WNW,300,14.0,24.0,63,-99.99,,,-99.99,,2013-01-20 17:22:00,
2013-01-20 12:33:00,21.0,10.0,-100.00,NW,315,12.0,17.0,63,-99.99,,,-99.99,,2013-01-20 17:33:00,
2013-01-20 12:42:00,20.0,11.0,-100.00,WNW,295,14.0,21.0,66,-99.99,,,-99.99,,2013-01-20 17:42:00,
2013-01-20 12:52:00,20.0,11.0,-100.00,NW,320,15.0,22.0,66,-99.99,,,-99.99,,2013-01-20 17:52:00,
2013-01-20 13:03:00,21.0,11.0,-100.00,WNW,300,12.0,21.0,64,-99.99,,,-99.99,,2013-01-20 18:03:00,
2013-01-20 13:13:00,20.0,11.0,-100.00,NW,305,11.0,22.0,65,-99.99,,,-99.99,,2013-01-20 18:13:00,
2013-01-20 13:23:00,20.0,11.0,-100.00,WNW,295,10.0,16.0,66,-99.99,,,-99.99,,2013-01-20 18:23:00,
2013-01-20 13:33:00,21.0,11.0,-100.00,West,280,12.0,19.0,66,-99.99,,,-99.99,,2013-01-20 18:33:00,
2013-01-20 13:43:00,21.0,11.0,-100.00,NW,305,12.0,20.0,64,-99.99,,,-99.99,,2013-01-20 18:43:00,
2013-01-20 13:53:00,21.0,11.0,-100.00,West,260,13.0,19.0,64,-99.99,,,-99.99,,2013-01-20 18:53:00,
2013-01-20 14:03:00,21.0,10.0,-100.00,WNW,295,16.0,21.0,63,-99.99,,,-99.99,,2013-01-20 19:03:00,
2013-01-20 14:12:00,20.0,10.0,-100.00,NW,305,12.0,23.0,63,-99.99,,,-99.99,,2013-01-20 19:12:00,
2013-01-20 14:22:00,20.0,10.0,-100.00,NW,310,12.0,18.0,63,-99.99,,,-99.99,,2013-01-20 19:22:00,
2013-01-20 14:33:00,20.0,10.0,-100.00,WNW,290,9.0,18.0,63,-99.99,,,-99.99,,2013-01-20 19:33:00,
2013-01-20 14:43:00,20.0,10.0,-100.00,WNW,290,12.0,21.0,64,-99.99,,,-99.99,,2013-01-20 19:43:00,
2013-01-20 14:52:00,20.0,10.0,-100.00,WNW,300,14.0,17.0,64,-99.99,,,-99.99,,2013-01-20 19:52:00,
2013-01-20 15:03:00,20.0,11.0,-100.00,WNW,295,11.0,16.0,65,-99.99,,,-99.99,,2013-01-20 20:03:00,
2013-01-20 15:12:00,20.0,11.0,-100.00,WNW,285,11.0,16.0,66,-99.99,,,-99.99,,2013-01-20 20:12:00,
2013-01-20 15:23:00,20.0,11.0,-100.00,WNW,295,10.0,19.0,66,-99.99,,,-99.99,,2013-01-20 20:23:00,
2013-01-20 15:30:00,20.0,10.0,-100.00,WNW,300,12.0,17.0,63,-99.99,,,-99.99,,2013-01-20 20:30:00,
2013-01-20 15:33:00,20.0,11.0,-100.00,WNW,295,12.0,19.0,64,-99.99,,,-99.99,,2013-01-20 20:33:00,
2013-01-20 15:42:00,20.0,10.0,-100.00,WNW,300,14.0,20.0,63,-99.99,,,-99.99,,2013-01-20 20:42:00,
2013-01-20 15:53:00,20.0,10.0,-100.00,WNW,300,12.0,17.0,63,-99.99,,,-99.99,,2013-01-20 20:53:00,
2013-01-20 16:04:00,20.0,10.0,-100.00,WNW,300,12.0,17.0,63,-99.99,,,-99.99,,2013-01-20 21:04:00,
2013-01-20 16:13:00,20.0,10.0,-100.00,WNW,300,12.0,17.0,63,-99.99,,,-99.99,,2013-01-20 21:13:00,
2013-01-20 16:23:00,20.0,10.0,-100.00,WNW,300,12.0,17.0,63,-99.99,,,-99.99,,2013-01-20 21:23:00,
2013-01-20 16:43:00,20.0,9.0,-100.00,West,265,10.0,17.0,63,-99.99,,,-99.99,,2013-01-20 21:43:00,
2013-01-20 16:54:00,19.0,9.0,-100.00,West,275,9.0,18.0,64,-99.99,,,-99.99,,2013-01-20 21:54:00,
2013-01-20 17:03:00,19.0,9.0,-100.00,West,275,11.0,16.0,64,-99.99,,,-99.99,,2013-01-20 22:03:00,
2013-01-20 17:13:00,19.0,9.0,-100.00,WNW,300,11.0,18.0,64,-99.99,,,-99.99,,2013-01-20 22:13:00,
2013-01-20 17:23:00,19.0,9.0,-100.00,WNW,290,13.0,18.0,64,-99.99,,,-99.99,,2013-01-20 22:23:00,
2013-01-20 17:33:00,19.0,9.0,-100.00,WNW,285,11.0,17.0,63,-99.99,,,-99.99,,2013-01-20 22:33:00,
2013-01-20 17:43:00,19.0,9.0,-100.00,WNW,285,12.0,17.0,63,-99.99,,,-99.99,,2013-01-20 22:43:00,
2013-01-20 17:52:00,19.0,9.0,-100.00,WNW,290,7.0,16.0,64,-99.99,,,-99.99,,2013-01-20 22:52:00,
2013-01-20 18:03:00,19.0,9.0,-100.00,NW,305,12.0,16.0,64,-99.99,,,-99.99,,2013-01-20 23:03:00,
2013-01-20 18:13:00,19.0,9.0,-100.00,WNW,300,8.0,16.0,65,-99.99,,,-99.99,,2013-01-20 23:13:00,
2013-01-20 18:23:00,18.0,9.0,-100.00,NW,305,12.0,17.0,66,-99.99,,,-99.99,,2013-01-20 23:23:00,
2013-01-20 18:33:00,19.0,9.0,-100.00,WNW,300,9.0,13.0,66,-99.99,,,-99.99,,2013-01-20 23:33:00,
2013-01-20 18:43:00,18.0,9.0,-100.00,WNW,300,12.0,18.0,65,-99.99,,,-99.99,,2013-01-20 23:43:00,
2013-01-20 18:53:00,18.0,8.0,-100.00,West,275,13.0,19.0,63,-99.99,,,-99.99,,2013-01-20 23:53:00,
2013-01-20 19:03:00,18.0,8.0,-100.00,West,265,12.0,21.0,62,-99.99,,,-99.99,,2013-01-21 00:03:00,
2013-01-20 19:13:00,18.0,7.0,-100.00,WNW,285,12.0,17.0,62,-99.99,,,-99.99,,2013-01-21 00:13:00,
2013-01-20 19:23:00,18.0,8.0,-100.00,WNW,290,12.0,18.0,65,-99.99,,,-99.99,,2013-01-21 00:23:00,
2013-01-20 19:33:00,18.0,8.0,-100.00,WNW,285,7.0,15.0,65,-99.99,,,-99.99,,2013-01-21 00:33:00,
2013-01-20 19:43:00,18.0,9.0,-100.00,WNW,290,11.0,12.0,65,-99.99,,,-99.99,,2013-01-21 00:43:00,
2013-01-20 19:53:00,18.0,8.0,-100.00,WNW,290,12.0,16.0,65,-99.99,,,-99.99,,2013-01-21 00:53:00,
2013-01-20 20:03:00,18.0,8.0,-100.00,NW,305,11.0,17.0,65,-99.99,,,-99.99,,2013-01-21 01:03:00,
2013-01-20 20:13:00,18.0,8.0,-100.00,West,280,9.0,14.0,66,-99.99,,,-99.99,,2013-01-21 01:13:00,
2013-01-20 20:23:00,18.0,8.0,-100.00,West,275,11.0,16.0,64,-99.99,,,-99.99,,2013-01-21 01:23:00,
2013-01-20 20:33:00,18.0,8.0,-100.00,WNW,295,12.0,14.0,66,-99.99,,,-99.99,,2013-01-21 01:33:00,
2013-01-20 20:43:00,18.0,8.0,-100.00,West,280,11.0,14.0,66,-99.99,,,-99.99,,2013-01-21 01:43:00,
2013-01-20 20:53:00,18.0,8.0,-100.00,WNW,290,10.0,14.0,64,-99.99,,,-99.99,,2013-01-21 01:53:00,
2013-01-20 21:03:00,18.0,8.0,-100.00,WNW,295,9.0,13.0,64,-99.99,,,-99.99,,2013-01-21 02:03:00,
2013-01-20 21:12:00,18.0,8.0,-100.00,WNW,295,9.0,12.0,64,-99.99,,,-99.99,,2013-01-21 02:12:00,
2013-01-20 21:23:00,18.0,8.0,-100.00,WNW,295,6.0,13.0,64,-99.99,,,-99.99,,2013-01-21 02:23:00,
2013-01-20 21:33:00,18.0,8.0,-100.00,WNW,300,9.0,14.0,65,-99.99,,,-99.99,,2013-01-21 02:33:00,
2013-01-20 21:43:00,18.0,8.0,-100.00,WNW,300,13.0,17.0,64,-99.99,,,-99.99,,2013-01-21 02:43:00,
2013-01-20 21:53:00,18.0,7.0,-100.00,WNW,300,12.0,16.0,63,-99.99,,,-99.99,,2013-01-21 02:53:00,
2013-01-20 22:03:00,17.0,7.0,-100.00,WNW,295,10.0,13.0,63,-99.99,,,-99.99,,2013-01-21 03:03:00,
2013-01-20 22:13:00,17.0,7.0,-100.00,WNW,295,9.0,12.0,63,-99.99,,,-99.99,,2013-01-21 03:13:00,
2013-01-20 22:23:00,17.0,7.0,-100.00,NW,305,9.0,14.0,63,-99.99,,,-99.99,,2013-01-21 03:23:00,
2013-01-20 22:33:00,17.0,7.0,-100.00,West,280,9.0,12.0,63,-99.99,,,-99.99,,2013-01-21 03:33:00,
2013-01-20 22:43:00,17.0,7.0,-100.00,WNW,300,6.0,12.0,64,-99.99,,,-99.99,,2013-01-21 03:43:00,
2013-01-20 22:53:00,17.0,7.0,-100.00,WNW,300,7.0,11.0,64,-99.99,,,-99.99,,2013-01-21 03:53:00,
2013-01-20 23:03:00,17.0,7.0,-100.00,WNW,295,7.0,11.0,64,-99.99,,,-99.99,,2013-01-21 04:03:00,
2013-01-20 23:12:00,17.0,7.0,-100.00,WNW,290,8.0,11.0,64,-99.99,,,-99.99,,2013-01-21 04:12:00,
2013-01-20 23:23:00,17.0,8.0,-100.00,WNW,295,7.0,10.0,64,-99.99,,,-99.99,,2013-01-21 04:23:00,
2013-01-20 23:33:00,17.0,8.0,-100.00,West,275,6.0,8.0,64,-99.99,,,-99.99,,2013-01-21 04:33:00,
2013-01-20 23:43:00,17.0,8.0,-100.00,West,270,4.0,7.0,64,-99.99,,,-99.99,,2013-01-21 04:43:00,
2013-01-20 23:53:00,18.0,8.0,-100.00,WNW,285,5.0,6.0,65,-99.99,,,-99.99,,2013-01-21 04:53:00,